TimePDT,TemperatureF,Dew PointF,Humidity,Sea Level PressureIn,VisibilityMPH,Wind Direction,Wind SpeedMPH,Gust SpeedMPH,PrecipitationIn,Events,Conditions,WindDirDegrees,DateUTC
12:15 AM,42.8,41.0,93,29.60,10.0,SE,5.8,-,0.01,,Overcast,130,2013-03-20 07:15:00
12:35 AM,42.8,39.2,87,29.60,10.0,SSW,5.8,-,0.01,,Overcast,200,2013-03-20 07:35:00
12:55 AM,42.8,39.2,87,29.59,10.0,SSW,5.8,-,0.02,,Overcast,200,2013-03-20 07:55:00
1:15 AM,44.6,39.2,81,29.58,10.0,Calm,Calm,-,0.01,,Overcast,0,2013-03-20 08:15:00
1:35 AM,44.6,41.0,87,29.57,10.0,SSE,3.5,-,0.01,,Overcast,150,2013-03-20 08:35:00
1:55 AM,46.4,42.8,87,29.55,10.0,SE,4.6,-,0.01,,Overcast,140,2013-03-20 08:55:00
2:15 AM,46.4,42.8,87,29.54,10.0,SE,6.9,-,N/A,,Overcast,140,2013-03-20 09:15:00
2:35 AM,46.4,42.8,87,29.54,10.0,SE,17.3,-,N/A,,Overcast,130,2013-03-20 09:35:00
2:55 AM,46.4,42.8,87,29.53,10.0,ESE,17.3,24.2,0.01,,Overcast,120,2013-03-20 09:55:00
3:15 AM,48.2,42.8,82,29.52,10.0,ESE,16.1,23.0,N/A,,Overcast,120,2013-03-20 10:15:00
3:35 AM,48.2,42.8,82,29.51,10.0,ESE,12.7,24.2,N/A,,Overcast,110,2013-03-20 10:35:00
3:55 AM,48.2,42.8,82,29.49,10.0,East,15.0,20.7,N/A,,Overcast,100,2013-03-20 10:55:00
4:15 AM,48.2,42.8,82,29.48,10.0,ESE,8.1,17.3,N/A,,Overcast,120,2013-03-20 11:15:00
4:35 AM,48.2,42.8,82,29.48,10.0,SSE,3.5,-,N/A,,Overcast,150,2013-03-20 11:35:00
4:55 AM,48.2,42.8,82,29.45,10.0,ESE,12.7,16.1,N/A,,Overcast,120,2013-03-20 11:55:00
5:15 AM,48.2,42.8,82,29.45,10.0,SE,15.0,-,N/A,,Overcast,130,2013-03-20 12:15:00
5:35 AM,48.2,42.8,82,29.44,10.0,ESE,12.7,17.3,N/A,,Overcast,120,2013-03-20 12:35:00
5:55 AM,48.2,44.6,87,29.43,10.0,ESE,15.0,27.6,N/A,,Mostly Cloudy,120,2013-03-20 12:55:00
6:15 AM,48.2,44.6,87,29.42,10.0,ESE,15.0,-,0.01,,Mostly Cloudy,120,2013-03-20 13:15:00
6:35 AM,48.2,44.6,87,29.41,10.0,SE,12.7,19.6,0.01,,Mostly Cloudy,130,2013-03-20 13:35:00
6:55 AM,48.2,44.6,87,29.40,10.0,SE,17.3,-,0.03,,Overcast,130,2013-03-20 13:55:00
7:15 AM,48.2,44.6,87,29.40,10.0,SE,15.0,-,N/A,,Overcast,130,2013-03-20 14:15:00
7:35 AM,48.2,44.6,87,29.38,10.0,SE,19.6,27.6,N/A,,Overcast,140,2013-03-20 14:35:00
7:55 AM,48.2,44.6,87,29.39,10.0,SE,19.6,26.5,0.01,,Overcast,140,2013-03-20 14:55:00
8:15 AM,48.2,44.6,87,29.39,10.0,SE,23.0,27.6,N/A,,Overcast,130,2013-03-20 15:15:00
8:55 AM,48.2,44.6,87,29.38,10.0,SE,23.0,31.1,N/A,,Overcast,140,2013-03-20 15:55:00
9:15 AM,48.2,44.6,87,29.38,10.0,SE,25.3,36.8,N/A,,Overcast,140,2013-03-20 16:15:00
9:35 AM,50.0,44.6,82,29.39,10.0,SSE,25.3,33.4,N/A,,Overcast,150,2013-03-20 16:35:00
9:55 AM,50.0,46.4,87,29.41,10.0,SSE,23.0,-,N/A,,Overcast,150,2013-03-20 16:55:00
10:15 AM,51.8,44.6,76,29.42,10.0,South,24.2,29.9,N/A,,Overcast,170,2013-03-20 17:15:00
10:35 AM,51.8,42.8,71,29.44,10.0,South,20.7,29.9,N/A,,Mostly Cloudy,170,2013-03-20 17:35:00
10:55 AM,51.8,42.8,71,29.45,10.0,South,27.6,34.5,N/A,,Overcast,170,2013-03-20 17:55:00
11:15 AM,51.8,42.8,71,29.45,10.0,South,31.1,38.0,0.01,,Scattered Clouds,180,2013-03-20 18:15:00
11:35 AM,53.6,39.2,58,29.48,10.0,South,29.9,42.6,0.01,,Clear,170,2013-03-20 18:35:00
11:55 AM,53.6,39.2,58,29.49,10.0,South,27.6,47.2,0.01,,Partly Cloudy,170,2013-03-20 18:55:00
1:35 PM,51.8,37.4,58,29.57,10.0,South,25.3,32.2,N/A,,Unknown,190,2013-03-20 20:35:00
1:55 PM,51.8,37.4,58,29.58,10.0,South,16.1,28.8,N/A,,Mostly Cloudy,190,2013-03-20 20:55:00
2:15 PM,51.8,37.4,58,29.59,10.0,SSW,24.2,34.5,N/A,,Overcast,200,2013-03-20 21:15:00
2:35 PM,50.0,37.4,62,29.59,10.0,SSW,20.7,36.8,N/A,,Overcast,200,2013-03-20 21:35:00
2:55 PM,51.8,35.6,54,29.61,10.0,SSW,27.6,34.5,N/A,,Overcast,200,2013-03-20 21:55:00
3:15 PM,48.2,37.4,66,29.61,10.0,SSW,24.2,31.1,N/A,,Overcast,210,2013-03-20 22:15:00
3:35 PM,44.6,39.2,81,29.65,9.0,WSW,11.5,24.2,0.07,,Overcast,240,2013-03-20 22:35:00
3:55 PM,46.4,42.8,87,29.67,10.0,WNW,5.8,-,0.08,,Overcast,300,2013-03-20 22:55:00
4:15 PM,48.2,39.2,71,29.68,10.0,NW,15.0,19.6,N/A,,Overcast,310,2013-03-20 23:15:00
4:35 PM,46.4,37.4,71,29.70,10.0,NW,10.4,16.1,N/A,,Overcast,310,2013-03-20 23:35:00
4:55 PM,46.4,35.6,66,29.71,10.0,NW,17.3,23.0,N/A,,Mostly Cloudy,310,2013-03-20 23:55:00
5:15 PM,44.6,33.8,66,29.72,10.0,NW,15.0,24.2,N/A,,Overcast,310,2013-03-21 00:15:00
5:35 PM,44.6,33.8,66,29.74,10.0,WNW,12.7,25.3,N/A,,Overcast,290,2013-03-21 00:35:00
5:55 PM,44.6,32.0,61,29.75,10.0,NW,17.3,28.8,N/A,,Overcast,310,2013-03-21 00:55:00
6:15 PM,44.6,33.8,66,29.77,10.0,NW,15.0,20.7,N/A,,Overcast,320,2013-03-21 01:15:00
6:35 PM,44.6,32.0,61,29.79,10.0,WNW,12.7,27.6,N/A,,Overcast,300,2013-03-21 01:35:00
6:55 PM,44.6,32.0,61,29.81,10.0,WNW,9.2,23.0,N/A,,Overcast,290,2013-03-21 01:55:00
7:15 PM,42.8,30.2,61,29.81,10.0,NW,17.3,26.5,N/A,,Overcast,310,2013-03-21 02:15:00
7:35 PM,42.8,30.2,61,29.82,10.0,NW,11.5,-,N/A,,Overcast,310,2013-03-21 02:35:00
7:55 PM,42.8,30.2,61,29.84,10.0,WNW,9.2,21.9,N/A,,Overcast,300,2013-03-21 02:55:00
8:15 PM,42.8,30.2,61,29.87,10.0,West,10.4,23.0,N/A,,Mostly Cloudy,260,2013-03-21 03:15:00
8:35 PM,41.0,28.4,61,29.89,10.0,NW,3.5,-,N/A,,Overcast,320,2013-03-21 03:35:00
8:55 PM,42.8,28.4,57,29.91,10.0,West,6.9,18.4,N/A,,Overcast,270,2013-03-21 03:55:00
9:15 PM,42.8,26.6,53,29.94,10.0,WNW,8.1,-,N/A,,Overcast,290,2013-03-21 04:15:00
9:35 PM,42.8,26.6,53,29.95,10.0,WNW,10.4,18.4,N/A,,Overcast,300,2013-03-21 04:35:00
9:55 PM,41.0,26.6,57,29.96,10.0,West,3.5,-,N/A,,Overcast,260,2013-03-21 04:55:00
10:15 PM,39.2,30.2,70,29.97,10.0,Calm,Calm,-,N/A,,Partly Cloudy,0,2013-03-21 05:15:00
10:35 PM,39.2,26.6,61,29.98,10.0,WNW,12.7,18.4,N/A,,Clear,300,2013-03-21 05:35:00
11:15 PM,37.4,30.2,75,30.01,10.0,South,11.5,-,N/A,,Mostly Cloudy,180,2013-03-21 06:15:00
11:35 PM,35.6,30.2,81,30.02,10.0,South,6.9,-,N/A,,Overcast,180,2013-03-21 06:35:00
11:55 PM,35.6,30.2,81,30.03,10.0,South,5.8,-,N/A,,Scattered Clouds,170,2013-03-21 06:55:00